Location: Goettingen
(51.5300°N, 9.9433°E)
Time: 17:25:22
(UTC+02:00)

ISS - Pass Details

Date: 23 May 2020
Orbit: 417 x 420 km, 51.6° (Epoch: 26 May)

Event Time Altitude Azimuth Distance (km) Brightness Sun altitude
Rises 23:54:25 0° 282° (WNW) 2,368 0.5 -15.4°
Reaches altitude 10° 23:56:31 10° 279° (W) 1,503 -0.6 -15.5°
Maximum altitude 23:59:51 60° 199° (SSW) 484 -3.8 -15.7°
Enters shadow 00:00:59 36° 135° (SE) 683 -3.2 -15.8°
